Location: Pagani
(40.7500°N, 14.6167°E)
Time: 07:24:41
(UTC+00:00)

Spot 2 Rocket - Pass Details

Date: 15 May 2026
Orbit: 752 x 765 km, 98.3° (Epoch: 6 June)

Event Time Altitude Azimuth Distance (km) Brightness Sun altitude
Exits shadow 19:22:57 17° 139° (SE) 1,862 4.9 -12.2°
Maximum altitude 19:26:37 47° 71° (ENE) 999 3.9 -12.7°
Drops below altitude 10° 19:31:25 10° 359° (N) 2,289 6.6 -13.4°
Sets 19:33:48 0° 354° (N) 3,220 7.5 -13.8°
